Погода в Лопатках

Россия / Курганская область     54°59′11″N   66°37′12″E
темп.,
°C
ветер,
м/с
пор.,
м/с
влажн.,
%
обл.,
%
осадки,
мм/ч
давл.,
гПа
погр.,
м
9 мая, вс
вс923:00+16всв3437100 0.0 101549
02:00+14всв4943100 0.0 1014160
05:00+13всв3949100 0.0 1014178
08:00+16всв4945100 0.0 1014352
11:00+20вюв61236100 0.0 10142316
14:00+21вюв101334100 0.0 10132736
17:00+18вюв71440100 0.5 10141598
20:00+18всв101437100 0.3 10151009
10 мая, пн
пн1023:00+17всв7124492 0.3 1016862
02:00+14св71348100 0.0 1017508
05:00+11св61253100 0.0 1018453
08:00+13всв71043100 0.0 1020751
11:00+15всв8935100 0.0 10201303
14:00+18всв7928100 0.0 10211797
17:00+18всв7827100 0.0 10221851
20:00+14всв4739100 0.0 1023169
11 мая, вт
вт1123:00+11всв354899 0.0 102574
02:00+9св33515 0.0 102631
05:00+8св33540 0.0 102730
08:00+14св34390 0.0 1028355
11:00+18ссв34280 0.0 10271481
14:00+21с34235 0.0 10271975
17:00+22с4422100 0.0 10272090
20:00+17ссз3435100 0.0 102738
12 мая, ср
ср1223:00+15ссз3437100 0.0 102757
02:00+14сз3340100 0.0 102738
05:00+12зсз334717 0.0 102840
08:00+17зсз46385 0.0 1027406
11:00+21сз574127 0.0 10261886
14:00+19сз5847100 0.0 10251095
17:00+20с7836100 0.1 10261785
20:00+16с61146100 0.0 1026425
13 мая, чт
чт1323:00+15с5949100 0.0 1026478
02:00+11с376290 0.0 1026148
05:00+9с357186 0.0 1027113
08:00+14ссз455756 0.0 1027517
11:00+18ссз4548100 0.0 1026923
14:00+21ссз574210 0.0 10241535
17:00+22сз1441100 0.0 1023594
20:00+20св3451100 0.0 102467